Home > Weather > Mürzzuschlag > Past weeks

Flag for Austria Past Weather in Mürzzuschlag, Styria, Austria — Yesterday and Last 2 Weeks

Now
65 °F

Overcast.


Feels Like: 65 °F
Forecast: 49 / 69 °F
Wind: 9 mph from Northwest

Location: Eisenstadt

Current Time: Jun 27, 2016 at 8:03:08 AM

Latest Report: Jun 27, 2016 at 7:00 AM


Visibility: 14 mi

Pressure: 29.99 "Hg (27.72 "Hg at 670m altitude)

Humidity: 77%

Dew Point: 57 °F

Location of MürzzuschlagLocation

Past Weather in Mürzzuschlag — Graph

°F

Mürzzuschlag Temperature Yesterday

Maximum temperature yesterday: 77 °F (at 12:00 AM)
Minimum temperature yesterday: 67 °F (at 3:00 AM)
Average temperature yesterday: 71 °F

High & Low Weather Summary for the Past Weeks

 TemperatureHumidityPressure
High91 °F (Jun 24, 4:00 PM)94% (Jun 21, 6:00 AM)30.26 "Hg (Jun 21, 6:00 AM)
Low55 °F (Jun 21, 6:00 AM)34% (Jun 23, 5:00 PM)29.47 "Hg (Jun 17, 5:00 AM)
Average69 °F70%29.90 "Hg
* Reported Jun 12 6:00 AM — Jun 27 6:00 AM, Mürzzuschlag, Weather by CustomWeather, © 2016

Note: Actual official high and low records may vary slightly from our data, if they occured in-between our weather recording intervals... More about our weather records

Advertising

Mürzzuschlag Weather History for the Previous 24 Hours

Scroll right to see more
 ConditionsComfort  
Time TempWeatherWind HumidityBarometerVisibility
6:00 AM
Mon, Jun 27
65 °FOvercast.7 mph76%29.98 "Hg9 mi
5:00 AM65 °FPartly sunny.6 mph76%29.97 "Hg9 mi
4:00 AM65 °FPassing clouds.1 mph81%30.00 "Hg9 mi
3:00 AM66 °FMild.1 mph75%29.98 "HgN/A
2:00 AM66 °FOvercast.1 mph78%30.00 "Hg9 mi
1:00 AM67 °FMild.2 mph74%29.98 "HgN/A
11:00 PM
Sun, Jun 26
67 °FClear.1 mph79%29.99 "Hg12 mi
10:00 PM68 °FMild.1 mph76%29.99 "HgN/A
9:00 PM70 °FMild.1 mph76%29.98 "HgN/A
8:00 PM72 °FPartly sunny.1 mph69%29.98 "Hg12 mi
7:00 PM73 °FPartly sunny.2 mph67%29.95 "Hg12 mi
6:00 PM74 °FMild.1 mph63%29.98 "HgN/A
5:00 PM76 °FPartly sunny.2 mph57%29.98 "Hg12 mi
4:00 PM76 °FMild.5 mph57%29.98 "HgN/A
3:00 PM76 °FMild.3 mph57%29.98 "HgN/A
2:00 PM76 °FOvercast.3 mph56%29.99 "Hg12 mi
1:00 PM75 °FMild.5 mph56%30.01 "HgN/A
12:00 PM75 °FMild.5 mph57%30.01 "HgN/A
11:00 AM74 °FOvercast.7 mph58%30.00 "Hg12 mi
10:00 AM72 °FMild.3 mph66%29.99 "HgN/A
9:00 AM70 °FMild.3 mph74%29.99 "HgN/A
8:00 AM68 °FPartly sunny.7 mph76%29.97 "Hg12 mi
Weather by CustomWeather, © 2016

See weather overviewHow to use our weather pages